Weather in Pazin

Croatia     45°14′24″N   13°56′14″E
В апреле 2022 года жителям России запретили посещать сайт meteo.paraplan.net по решению Генеральной прокуратуры. Аудитория сайта уменьшилась в 10 раз. Владельцы сайта не видят смысла в поддержке погодного сервера в таких условиях. Сайт будет закрыт в октябре.
temp.,
°C
wind,
m/s
gust,
m/s
humid.,
%
clouds,
%
prec.,
mm/h
press.,
hPa
HPBL,
m
25 september, sun
sun2523:00+12sse3897100 6.1 1017575
02:00+12se41197100 11.4 1016683
05:00+14se51198100 6.4 10131090
08:00+14sse61297100 13.1 10131050
11:00+16ssw349299 2.6 1013548
14:00+15ssw3697100 6.1 1012569
17:00+15s3797100 2.3 1011605
20:00+14sse1299100 4.5 101199
26 september, mon
mon2623:00+14se0199100 2.7 101133
02:00+13ese1198100 8.9 101020
05:00+12se1198100 3.8 100822
08:00+13ene0197100 5.0 100830
11:00+17wsw1284100 1.1 1009251
14:00+18ssw1272100 1.9 1007812
17:00+16ssw128779 1.5 1006144
20:00+12ese11930 2.1 100613
27 september, tue
tue2723:00+11e11953 1.1 100622
02:00+11e2397100 1.5 100463
05:00+12sse2696100 1.1 1002201
08:00+14wsw5118790 5.2 1001804
11:00+14ssw3886100 1.9 1002638
14:00+17sw247827 4.4 1001964
17:00+17sse12703 0.6 1002681
20:00+12e229324 0.9 100440
28 september, wed
wed2823:00+11e239519 0.1 100574
02:00+11e239554 0.9 100593
05:00+10e229412 0.1 100534
08:00+11e239383 0.2 100481
11:00+16se2679100 0.0 1004486
14:00+16s4781100 1.3 10031010
17:00+15sse2689100 2.2 1001271
20:00+13ese2397100 4.3 100282
29 september, thu
thu2923:00+13ese249970 4.9 1001202
02:00+13sse259746 6.7 1001207
05:00+13sse119784 2.3 100125
08:00+14ese1396100 4.4 1002111
11:00+16ssw4689100 2.3 1003697
14:00+17ssw498639 5.8 10041092
17:00+16sse378872 3.3 1005660
20:00+13e1194100 5.0 100724